Time,TemperatureF,DewpointF,PressureIn,WindDirection,WindDirectionDegrees,WindSpeedMPH,WindSpeedGustMPH,Humidity,HourlyPrecipIn,Conditions,Clouds,dailyrainin,SoftwareType,DateUTC
2016-07-30 00:03:00,67.3,58.0,29.88,SW,225,0.0,-999.0,72,-99.99,,,0.00,,2016-07-30 07:03:00,
2016-07-30 00:09:00,67.3,58.0,29.88,West,270,0.0,-999.0,72,-99.99,,,0.00,,2016-07-30 07:09:00,
2016-07-30 00:14:00,67.1,58.2,29.88,SW,225,0.0,-999.0,73,-99.99,,,0.00,,2016-07-30 07:14:00,
2016-07-30 00:19:00,66.9,58.0,29.89,West,270,0.0,-999.0,73,-99.99,,,0.00,,2016-07-30 07:19:00,
2016-07-30 00:25:00,66.7,57.8,29.89,WSW,247,0.0,-999.0,73,-99.99,,,0.00,,2016-07-30 07:25:00,
2016-07-30 00:30:00,66.7,57.8,29.89,SSW,202,0.0,-999.0,73,-99.99,,,0.00,,2016-07-30 07:30:00,
2016-07-30 00:36:00,66.7,57.8,29.89,SSW,202,0.0,-999.0,73,-99.99,,,0.00,,2016-07-30 07:36:00,
2016-07-30 00:41:00,66.7,57.8,29.89,SW,225,0.0,-999.0,73,-99.99,,,0.00,,2016-07-30 07:41:00,
2016-07-30 00:47:00,66.7,57.8,29.89,SW,225,0.0,-999.0,73,-99.99,,,0.00,,2016-07-30 07:47:00,
2016-07-30 00:52:00,66.6,57.7,29.89,SSW,202,0.0,-999.0,73,-99.99,,,0.00,,2016-07-30 07:52:00,
2016-07-30 00:58:00,66.6,57.7,29.89,WSW,247,0.0,-999.0,73,-99.99,,,0.00,,2016-07-30 07:58:00,
2016-07-30 01:03:00,66.6,57.7,29.89,South,180,0.0,-999.0,73,-99.99,,,0.00,,2016-07-30 08:03:00,
2016-07-30 01:09:00,66.4,57.5,29.89,South,180,0.0,-999.0,73,-99.99,,,0.00,,2016-07-30 08:09:00,
2016-07-30 01:14:00,66.2,57.3,29.89,SSW,202,0.0,-999.0,73,-99.99,,,0.00,,2016-07-30 08:14:00,
2016-07-30 01:19:00,66.0,57.5,29.89,SSW,202,0.0,-999.0,74,-99.99,,,0.00,,2016-07-30 08:19:00,
2016-07-30 01:24:00,66.0,57.1,29.89,SSW,202,0.0,-999.0,73,-99.99,,,0.00,,2016-07-30 08:24:00,
2016-07-30 01:30:00,65.8,56.9,29.89,South,180,0.0,-999.0,73,-99.99,,,0.00,,2016-07-30 08:30:00,
2016-07-30 01:35:00,65.8,56.9,29.89,ESE,112,0.0,-999.0,73,-99.99,,,0.00,,2016-07-30 08:35:00,
2016-07-30 01:41:00,65.7,56.8,29.90,ESE,112,0.0,-999.0,73,-99.99,,,0.00,,2016-07-30 08:41:00,
2016-07-30 01:47:00,65.5,57.0,29.90,ESE,112,0.0,-999.0,74,-99.99,,,0.00,,2016-07-30 08:47:00,
2016-07-30 01:52:00,65.3,56.4,29.90,South,180,0.0,-999.0,73,-99.99,,,0.00,,2016-07-30 08:52:00,
2016-07-30 01:58:00,65.1,56.2,29.90,South,180,0.0,-999.0,73,-99.99,,,0.00,,2016-07-30 08:58:00,
2016-07-30 02:03:00,64.8,55.9,29.90,NNE,22,1.7,-999.0,73,-99.99,,,0.00,,2016-07-30 09:03:00,
2016-07-30 02:09:00,64.6,56.1,29.90,SE,135,0.0,-999.0,74,-99.99,,,0.00,,2016-07-30 09:09:00,
2016-07-30 02:14:00,64.4,55.9,29.90,South,180,0.0,-999.0,74,-99.99,,,0.00,,2016-07-30 09:14:00,
2016-07-30 02:20:00,64.0,55.5,29.90,South,180,0.0,-999.0,74,-99.99,,,0.00,,2016-07-30 09:20:00,
2016-07-30 02:25:00,63.7,55.6,29.90,West,270,0.0,-999.0,75,-99.99,,,0.00,,2016-07-30 09:25:00,
2016-07-30 02:31:00,63.7,55.6,29.91,SSW,202,0.0,-999.0,75,-99.99,,,0.00,,2016-07-30 09:31:00,
2016-07-30 02:36:00,63.5,55.4,29.91,South,180,0.0,-999.0,75,-99.99,,,0.00,,2016-07-30 09:36:00,
2016-07-30 02:42:00,63.3,55.2,29.91,NE,45,0.0,-999.0,75,-99.99,,,0.00,,2016-07-30 09:42:00,
2016-07-30 02:48:00,62.8,55.5,29.91,SW,225,0.0,-999.0,77,-99.99,,,0.00,,2016-07-30 09:48:00,
2016-07-30 02:53:00,62.6,55.3,29.91,SSW,202,0.0,-999.0,77,-99.99,,,0.00,,2016-07-30 09:53:00,
2016-07-30 02:59:00,62.4,55.1,29.91,SSW,202,1.1,-999.0,77,-99.99,,,0.00,,2016-07-30 09:59:00,
2016-07-30 03:04:00,62.4,55.1,29.91,West,270,0.0,-999.0,77,-99.99,,,0.00,,2016-07-30 10:04:00,
2016-07-30 03:10:00,62.2,54.5,29.91,West,270,1.7,-999.0,76,-99.99,,,0.00,,2016-07-30 10:10:00,
2016-07-30 03:15:00,62.2,54.5,29.91,ESE,112,0.0,-999.0,76,-99.99,,,0.00,,2016-07-30 10:15:00,
2016-07-30 03:21:00,62.1,54.8,29.91,South,180,0.0,-999.0,77,-99.99,,,0.00,,2016-07-30 10:21:00,
2016-07-30 03:26:00,61.9,54.6,29.91,SSW,202,0.0,-999.0,77,-99.99,,,0.00,,2016-07-30 10:26:00,
2016-07-30 03:32:00,61.5,54.2,29.91,SSE,157,0.0,-999.0,77,-99.99,,,0.00,,2016-07-30 10:32:00,
2016-07-30 03:38:00,61.9,55.7,29.91,South,180,0.0,-999.0,80,-99.99,,,0.00,,2016-07-30 10:38:00,
2016-07-30 03:43:00,61.9,56.0,29.91,East,90,1.1,-999.0,81,-99.99,,,0.00,,2016-07-30 10:43:00,
2016-07-30 03:49:00,61.7,55.8,29.91,SSW,202,0.0,-999.0,81,-99.99,,,0.00,,2016-07-30 10:49:00,
2016-07-30 03:54:00,61.7,56.1,29.91,SSW,202,0.0,-999.0,82,-99.99,,,0.00,,2016-07-30 10:54:00,
2016-07-30 04:00:00,62.1,56.5,29.91,West,270,2.7,-999.0,82,-99.99,,,0.00,,2016-07-30 11:00:00,
2016-07-30 04:05:00,62.4,56.8,29.91,ENE,67,1.1,-999.0,82,-99.99,,,0.00,,2016-07-30 11:05:00,
2016-07-30 04:11:00,62.4,56.8,29.91,NW,315,2.2,-999.0,82,-99.99,,,0.00,,2016-07-30 11:11:00,
2016-07-30 04:16:00,62.2,56.6,29.91,SE,135,0.0,-999.0,82,-99.99,,,0.00,,2016-07-30 11:16:00,
2016-07-30 04:22:00,62.2,56.6,29.91,East,90,1.7,-999.0,82,-99.99,,,0.00,,2016-07-30 11:22:00,
2016-07-30 04:27:00,62.2,56.6,29.91,SSW,202,4.2,-999.0,82,-99.99,,,0.00,,2016-07-30 11:27:00,
2016-07-30 04:32:00,62.2,56.6,29.91,WNW,292,3.2,-999.0,82,-99.99,,,0.00,,2016-07-30 11:32:00,
2016-07-30 04:38:00,62.2,56.6,29.91,West,270,1.7,-999.0,82,-99.99,,,0.00,,2016-07-30 11:38:00,
2016-07-30 04:43:00,62.2,56.6,29.92,SSW,202,2.2,-999.0,82,-99.99,,,0.00,,2016-07-30 11:43:00,
2016-07-30 04:48:00,62.2,56.3,29.92,SE,135,2.7,-999.0,81,-99.99,,,0.00,,2016-07-30 11:48:00,
2016-07-30 04:54:00,62.1,56.2,29.92,SSE,157,1.1,-999.0,81,-99.99,,,0.00,,2016-07-30 11:54:00,
2016-07-30 04:59:00,61.7,55.8,29.92,West,270,2.2,-999.0,81,-99.99,,,0.00,,2016-07-30 11:59:00,
2016-07-30 05:05:00,61.7,55.8,29.92,ESE,112,3.7,-999.0,81,-99.99,,,0.00,,2016-07-30 12:05:00,
2016-07-30 05:10:00,61.5,55.6,29.92,ESE,112,0.0,-999.0,81,-99.99,,,0.00,,2016-07-30 12:10:00,
2016-07-30 05:16:00,61.2,55.3,29.92,WSW,247,1.7,-999.0,81,-99.99,,,0.00,,2016-07-30 12:16:00,
2016-07-30 05:21:00,61.0,55.1,29.92,SSW,202,0.0,-999.0,81,-99.99,,,0.00,,2016-07-30 12:21:00,
2016-07-30 05:27:00,60.6,54.7,29.92,West,270,2.7,-999.0,81,-99.99,,,0.00,,2016-07-30 12:27:00,
2016-07-30 05:33:00,60.6,54.7,29.93,ESE,112,1.1,-999.0,81,-99.99,,,0.00,,2016-07-30 12:33:00,
2016-07-30 05:38:00,60.3,54.4,29.93,West,270,3.7,-999.0,81,-99.99,,,0.00,,2016-07-30 12:38:00,
2016-07-30 05:44:00,60.3,54.4,29.93,West,270,2.2,-999.0,81,-99.99,,,0.00,,2016-07-30 12:44:00,
2016-07-30 05:55:00,60.1,54.6,29.93,ENE,67,2.7,-999.0,82,-99.99,,,0.00,,2016-07-30 12:55:00,
2016-07-30 06:00:00,60.1,54.6,29.93,SW,225,2.2,-999.0,82,-99.99,,,0.00,,2016-07-30 13:00:00,
2016-07-30 06:06:00,59.9,54.4,29.93,ESE,112,0.0,-999.0,82,-99.99,,,0.00,,2016-07-30 13:06:00,
2016-07-30 06:11:00,59.7,54.2,29.93,SW,225,2.7,-999.0,82,-99.99,,,0.00,,2016-07-30 13:11:00,
2016-07-30 06:17:00,59.7,54.2,29.94,NNW,337,2.2,-999.0,82,-99.99,,,0.00,,2016-07-30 13:17:00,
2016-07-30 06:22:00,59.7,54.2,29.94,East,90,1.7,-999.0,82,-99.99,,,0.00,,2016-07-30 13:22:00,
2016-07-30 06:28:00,59.7,54.2,29.94,SW,225,1.7,-999.0,82,-99.99,,,0.00,,2016-07-30 13:28:00,
2016-07-30 06:34:00,59.7,54.2,29.94,West,270,2.2,-999.0,82,-99.99,,,0.00,,2016-07-30 13:34:00,
2016-07-30 06:39:00,59.7,54.2,29.94,West,270,1.7,-999.0,82,-99.99,,,0.00,,2016-07-30 13:39:00,
2016-07-30 06:45:00,59.7,54.2,29.94,East,90,5.8,-999.0,82,-99.99,,,0.00,,2016-07-30 13:45:00,
2016-07-30 06:50:00,59.9,54.4,29.94,West,270,2.7,-999.0,82,-99.99,,,0.00,,2016-07-30 13:50:00,
2016-07-30 06:56:00,59.9,54.4,29.95,ENE,67,2.7,-999.0,82,-99.99,,,0.00,,2016-07-30 13:56:00,
2016-07-30 07:01:00,60.1,54.6,29.95,WNW,292,3.2,-999.0,82,-99.99,,,0.00,,2016-07-30 14:01:00,
2016-07-30 07:07:00,60.1,54.6,29.95,ESE,112,1.7,-999.0,82,-99.99,,,0.00,,2016-07-30 14:07:00,
2016-07-30 07:12:00,60.1,54.6,29.95,West,270,4.2,-999.0,82,-99.99,,,0.00,,2016-07-30 14:12:00,
2016-07-30 07:18:00,60.3,54.8,29.95,ENE,67,2.7,-999.0,82,-99.99,,,0.00,,2016-07-30 14:18:00,
2016-07-30 07:24:00,60.6,54.7,29.95,NW,315,5.8,-999.0,81,-99.99,,,0.00,,2016-07-30 14:24:00,
2016-07-30 07:29:00,61.2,55.0,29.96,ESE,112,0.0,-999.0,80,-99.99,,,0.00,,2016-07-30 14:29:00,
2016-07-30 07:35:00,61.3,54.7,29.96,ESE,112,1.7,-999.0,79,-99.99,,,0.00,,2016-07-30 14:35:00,
2016-07-30 07:40:00,61.3,54.7,29.96,SSW,202,2.2,-999.0,79,-99.99,,,0.00,,2016-07-30 14:40:00,
2016-07-30 07:46:00,61.3,54.7,29.96,SSW,202,2.2,-999.0,79,-99.99,,,0.00,,2016-07-30 14:46:00,
2016-07-30 07:52:00,61.3,54.7,29.96,NNW,337,2.2,-999.0,79,-99.99,,,0.00,,2016-07-30 14:52:00,
2016-07-30 07:57:00,61.0,54.4,29.96,South,180,3.2,-999.0,79,-99.99,,,0.00,,2016-07-30 14:57:00,
2016-07-30 08:03:00,61.2,54.6,29.97,NW,315,0.0,-999.0,79,-99.99,,,0.00,,2016-07-30 15:03:00,
2016-07-30 08:09:00,61.5,54.6,29.97,SE,135,5.8,-999.0,78,-99.99,,,0.00,,2016-07-30 15:09:00,
2016-07-30 08:15:00,61.7,54.8,29.97,SE,135,5.3,-999.0,78,-99.99,,,0.00,,2016-07-30 15:15:00,
2016-07-30 08:20:00,62.1,54.8,29.96,South,180,1.7,-999.0,77,-99.99,,,0.00,,2016-07-30 15:20:00,
2016-07-30 08:25:00,62.8,55.1,29.96,South,180,5.3,-999.0,76,-99.99,,,0.00,,2016-07-30 15:25:00,
2016-07-30 08:31:00,63.0,55.0,29.97,ESE,112,5.3,-999.0,75,-99.99,,,0.00,,2016-07-30 15:31:00,
2016-07-30 08:36:00,63.3,54.9,29.97,SSW,202,2.2,-999.0,74,-99.99,,,0.00,,2016-07-30 15:36:00,
2016-07-30 08:42:00,63.3,54.9,29.97,WSW,247,2.7,-999.0,74,-99.99,,,0.00,,2016-07-30 15:42:00,
2016-07-30 08:47:00,62.8,54.4,29.97,WSW,247,3.7,-999.0,74,-99.99,,,0.00,,2016-07-30 15:47:00,
2016-07-30 08:53:00,62.8,54.8,29.97,East,90,4.2,-999.0,75,-99.99,,,0.00,,2016-07-30 15:53:00,
2016-07-30 08:59:00,62.6,54.6,29.97,South,180,2.2,-999.0,75,-99.99,,,0.00,,2016-07-30 15:59:00,
2016-07-30 09:04:00,62.2,54.2,29.98,West,270,2.2,-999.0,75,-99.99,,,0.00,,2016-07-30 16:04:00,
2016-07-30 09:10:00,62.6,54.6,29.98,South,180,2.7,-999.0,75,-99.99,,,0.00,,2016-07-30 16:10:00,
2016-07-30 09:15:00,62.6,54.2,29.98,South,180,1.7,-999.0,74,-99.99,,,0.00,,2016-07-30 16:15:00,
2016-07-30 09:21:00,63.0,54.6,29.98,South,180,2.7,-999.0,74,-99.99,,,0.00,,2016-07-30 16:21:00,
2016-07-30 09:26:00,63.0,54.6,29.98,ESE,112,4.7,-999.0,74,-99.99,,,0.00,,2016-07-30 16:26:00,
2016-07-30 09:32:00,63.1,54.7,29.98,SSE,157,1.1,-999.0,74,-99.99,,,0.00,,2016-07-30 16:32:00,
2016-07-30 09:37:00,63.9,54.7,29.98,North,360,2.2,-999.0,72,-99.99,,,0.00,,2016-07-30 16:37:00,
2016-07-30 09:43:00,63.7,54.5,29.98,West,270,2.2,-999.0,72,-99.99,,,0.00,,2016-07-30 16:43:00,
2016-07-30 09:48:00,62.8,54.0,29.98,North,360,1.7,-999.0,73,-99.99,,,0.00,,2016-07-30 16:48:00,
2016-07-30 09:54:00,63.7,54.5,29.98,West,270,4.2,-999.0,72,-99.99,,,0.00,,2016-07-30 16:54:00,
2016-07-30 10:00:00,63.1,54.3,29.98,West,270,5.3,-999.0,73,-99.99,,,0.00,,2016-07-30 17:00:00,
2016-07-30 10:05:00,63.0,54.2,29.98,WNW,292,2.7,-999.0,73,-99.99,,,0.00,,2016-07-30 17:05:00,
2016-07-30 10:10:00,64.2,55.0,29.98,SSW,202,1.7,-999.0,72,-99.99,,,0.00,,2016-07-30 17:10:00,
2016-07-30 10:16:00,64.0,54.8,29.98,ESE,112,1.1,-999.0,72,-99.99,,,0.00,,2016-07-30 17:16:00,
2016-07-30 10:21:00,64.4,54.8,29.98,WSW,247,6.3,-999.0,71,-99.99,,,0.00,,2016-07-30 17:21:00,
2016-07-30 10:27:00,64.2,54.6,29.98,South,180,2.2,-999.0,71,-99.99,,,0.00,,2016-07-30 17:27:00,
2016-07-30 10:32:00,64.6,55.0,29.99,NE,45,4.2,-999.0,71,-99.99,,,0.00,,2016-07-30 17:32:00,
2016-07-30 10:38:00,64.4,54.8,29.99,East,90,4.7,-999.0,71,-99.99,,,0.00,,2016-07-30 17:38:00,
2016-07-30 10:43:00,64.4,54.8,29.98,West,270,1.1,-999.0,71,-99.99,,,0.00,,2016-07-30 17:43:00,
2016-07-30 10:49:00,65.1,55.1,29.98,ESE,112,4.7,-999.0,70,-99.99,,,0.00,,2016-07-30 17:49:00,
2016-07-30 10:54:00,64.8,54.8,29.99,SW,225,3.2,-999.0,70,-99.99,,,0.00,,2016-07-30 17:54:00,
2016-07-30 11:00:00,65.3,54.9,29.99,ESE,112,3.7,-999.0,69,-99.99,,,0.00,,2016-07-30 18:00:00,
2016-07-30 11:06:00,65.5,54.7,29.98,West,270,3.2,-999.0,68,-99.99,,,0.00,,2016-07-30 18:06:00,
2016-07-30 11:11:00,65.7,54.9,29.98,ESE,112,2.2,-999.0,68,-99.99,,,0.00,,2016-07-30 18:11:00,
2016-07-30 11:16:00,66.2,55.3,29.99,SSE,157,4.2,-999.0,68,-99.99,,,0.00,,2016-07-30 18:16:00,
2016-07-30 11:21:00,66.4,55.5,29.99,WNW,292,2.2,-999.0,68,-99.99,,,0.00,,2016-07-30 18:21:00,
2016-07-30 11:27:00,65.8,54.5,29.99,East,90,2.7,-999.0,67,-99.99,,,0.00,,2016-07-30 18:27:00,
2016-07-30 11:33:00,66.4,55.1,29.99,ESE,112,2.7,-999.0,67,-99.99,,,0.00,,2016-07-30 18:33:00,
2016-07-30 11:38:00,66.7,55.4,29.99,South,180,3.2,-999.0,67,-99.99,,,0.00,,2016-07-30 18:38:00,
2016-07-30 11:43:00,66.6,55.3,29.98,NNE,22,1.1,-999.0,67,-99.99,,,0.00,,2016-07-30 18:43:00,
2016-07-30 11:49:00,67.6,55.4,29.98,West,270,2.2,-999.0,65,-99.99,,,0.00,,2016-07-30 18:49:00,
2016-07-30 11:54:00,68.5,55.4,29.98,ESE,112,4.7,-999.0,63,-99.99,,,0.00,,2016-07-30 18:54:00,
2016-07-30 12:00:00,68.0,55.4,29.98,SE,135,3.7,-999.0,64,-99.99,,,0.00,,2016-07-30 19:00:00,
2016-07-30 12:05:00,68.4,55.3,29.98,ESE,112,5.3,-999.0,63,-99.99,,,0.00,,2016-07-30 19:05:00,
2016-07-30 12:11:00,69.3,55.7,29.98,SSE,157,3.7,-999.0,62,-99.99,,,0.00,,2016-07-30 19:11:00,
2016-07-30 12:16:00,70.5,56.4,29.98,South,180,4.2,-999.0,61,-99.99,,,0.00,,2016-07-30 19:16:00,
2016-07-30 12:22:00,70.5,55.9,29.98,SE,135,4.7,-999.0,60,-99.99,,,0.00,,2016-07-30 19:22:00,
2016-07-30 12:28:00,70.3,55.8,29.98,SSW,202,2.2,-999.0,60,-99.99,,,0.00,,2016-07-30 19:28:00,
2016-07-30 12:33:00,71.1,56.0,29.98,SSW,202,4.7,-999.0,59,-99.99,,,0.00,,2016-07-30 19:33:00,
2016-07-30 12:39:00,70.5,55.9,29.98,NNE,22,5.3,-999.0,60,-99.99,,,0.00,,2016-07-30 19:39:00,
2016-07-30 12:44:00,71.2,55.7,29.97,SE,135,3.7,-999.0,58,-99.99,,,0.00,,2016-07-30 19:44:00,
2016-07-30 12:50:00,71.4,56.3,29.97,South,180,2.2,-999.0,59,-99.99,,,0.00,,2016-07-30 19:50:00,
2016-07-30 12:57:00,72.3,56.2,29.97,West,270,2.7,-999.0,57,-99.99,,,0.00,,2016-07-30 19:57:00,
2016-07-30 13:03:00,73.0,56.4,29.97,SE,135,2.7,-999.0,56,-99.99,,,0.00,,2016-07-30 20:03:00,
2016-07-30 13:08:00,71.8,55.8,29.97,WNW,292,2.2,-999.0,57,-99.99,,,0.00,,2016-07-30 20:08:00,
2016-07-30 13:14:00,71.6,55.6,29.97,South,180,3.7,-999.0,57,-99.99,,,0.00,,2016-07-30 20:14:00,
2016-07-30 13:19:00,72.0,55.5,29.97,NE,45,1.7,-999.0,56,-99.99,,,0.00,,2016-07-30 20:19:00,
2016-07-30 13:25:00,73.9,56.7,29.97,WSW,247,3.2,-999.0,55,-99.99,,,0.00,,2016-07-30 20:25:00,
2016-07-30 13:30:00,74.3,56.6,29.97,West,270,3.2,-999.0,54,-99.99,,,0.00,,2016-07-30 20:30:00,
2016-07-30 13:35:00,73.6,56.4,29.97,WSW,247,3.7,-999.0,55,-99.99,,,0.00,,2016-07-30 20:35:00,
2016-07-30 13:41:00,73.6,55.4,29.97,NNE,22,4.2,-999.0,53,-99.99,,,0.00,,2016-07-30 20:41:00,
2016-07-30 13:47:00,73.6,55.9,29.97,WSW,247,2.2,-999.0,54,-99.99,,,0.00,,2016-07-30 20:47:00,
2016-07-30 13:52:00,73.9,55.7,29.97,ESE,112,5.8,-999.0,53,-99.99,,,0.00,,2016-07-30 20:52:00,
2016-07-30 13:57:00,74.1,55.9,29.97,ESE,112,4.7,-999.0,53,-99.99,,,0.00,,2016-07-30 20:57:00,
2016-07-30 14:02:00,74.5,55.7,29.97,WSW,247,2.2,-999.0,52,-99.99,,,0.00,,2016-07-30 21:02:00,
2016-07-30 14:08:00,74.3,56.1,29.97,SSE,157,5.3,-999.0,53,-99.99,,,0.00,,2016-07-30 21:08:00,
2016-07-30 14:13:00,74.8,56.5,29.97,West,270,3.2,-999.0,53,-99.99,,,0.00,,2016-07-30 21:13:00,
2016-07-30 14:19:00,74.3,55.5,29.97,WNW,292,4.2,-999.0,52,-99.99,,,0.00,,2016-07-30 21:19:00,
2016-07-30 14:24:00,74.3,55.5,29.97,SSE,157,3.2,-999.0,52,-99.99,,,0.00,,2016-07-30 21:24:00,
2016-07-30 14:29:00,74.7,55.9,29.97,ENE,67,2.7,-999.0,52,-99.99,,,0.00,,2016-07-30 21:29:00,
2016-07-30 14:35:00,74.5,55.7,29.97,SW,225,1.7,-999.0,52,-99.99,,,0.00,,2016-07-30 21:35:00,
2016-07-30 14:40:00,74.8,55.5,29.96,West,270,2.2,-999.0,51,-99.99,,,0.00,,2016-07-30 21:40:00,
2016-07-30 14:46:00,75.4,56.0,29.96,WNW,292,3.2,-999.0,51,-99.99,,,0.00,,2016-07-30 21:46:00,
2016-07-30 14:51:00,75.9,57.0,29.96,NNW,337,1.7,-999.0,52,-99.99,,,0.00,,2016-07-30 21:51:00,